FREGAT R/B, 41176

Orbit data source: Space-Track

FREGAT R/B, 41176 is space debris originally from a launch on Thu, 17 Dec 2015 UTC launched from the French Guiana (FRGUI). Debris objects in space refer to the collection of defunct objects orbiting the Earth. Examples of debris include non-operational satellites, rocket bodies, and fragments generated from explosions, collisions, or faulty payload assembly.

Loading next visibility...
Identifier
41176, 2015-079C
Orbit
Active
Country
Flag of CISCIS
Related business
Manufacturer
Lavochkin
Mission
Spacecraft
Bus & Motor
FREGAT, Unknown motor
Mass
1,050 kg wet, 1,050 kg dry
Launch date (UTC)
2015-12-17 (10 years ago)
Launch vehicle
Unknown
Launch site
French Guiana (FRGUI)
Object type
Payload
Rocket body
Debris
Shape & HBR
Irr, 1.6 m
Radar Cross Section
11.055 m², Large (>1 m²)

Expand to show TLE details & history
Last TLE update: 6 days ago

TLE from 6 days ago
0 FREGAT R/B
1 41176U 15079C   26128.18297644  .00000054  00000-0  00000-0 0  9990
2 41176  55.7368 106.2951 0013742 258.0931 101.7296  1.67560973 63586
Epoch: 2026-05-08T04:23Z
TLE epoch observation values (Epoch: 2026-05-08T04:23:29.164Z)
Latitude
-0.00003°
Longitude
174.38639°
Altitude
23,572.949 km
Speed
3.648 km/s
True Right ascension
07h 05m 06s
True Declination
0° 00' 00"
Sunlit
Object was in daylight at epoch
Visualization orbit readout
Latitude
Unknown
Longitude
Unknown
Altitude
Unknown
Speed
Unknown
Apparent Right ascension
Unknown
Apparent Declination
Unknown
Sunlit
N/A
Visualization observer readout
Local Sidereal Time
05:24:51
Azimuth
Unknown
Elevation
Unknown
Doppler factor
Unknown
Orbital elements
Apogee altitude
23,605.391 km
Perigee altitude
23,523.097 km
Semi-major axis
29,942.381 km
Eccentricity
0.00137
Inclination
55.7368°
RAAN
106.2951°
Arg. of periapsis
258.0931°
True anomaly
101.88373°
Mean anomaly
101.7296°
Eccentric anomaly
101.80667°
Mean motion
0.4189 °/min
Orbital period
859.39 mins
BSTAR
0
Loading maneuver chart data...
Computing Atmospheric mass density...
Loading historical data...
Loading historical data...
Loading historical data...
Loading historical data...
Loading historical data...
Loading historical data...
Loading historical data...
Other satellites on launch #79 in the year 2015 (2015-12-17 UTC)

Documentation

Showing up to 5 results
|